GW0580 Weather Reports


time (UTC)temp
C
wind
direction
speed
KPH
gust
KPH
rain 1hr
cm
rain 24hr
cm
rain mn
cm
humidity
%
barometer
mb
20260505082436 5 41 3.2 4.8 0.00 0.00 0.00 83 1023.7
20260505075437 5 36 3.2 3.2 0.00 0.00 0.00 82 1024.0
20260505073437 5 36 3.2 6.4 0.00 0.00 0.00 82 1024.0
20260505072438 5 32 3.2 6.4 0.00 0.00 0.00 82 1024.0
20260505071439 5 41 3.2 4.8 0.00 0.00 0.00 82 1024.3
20260505070515 5 34 3.2 4.8 0.00 0.00 0.00 82 1024.2
20260505065438 6 38 3.2 4.8 0.00 0.00 0.00 82 1024.3
20260505063437 6 34 3.2 4.8 0.00 0.00 0.00 81 1024.0
20260505062438 6 43 3.2 6.4 0.00 0.00 0.00 81 1024.3
20260505061438 6 45 3.2 6.4 0.00 0.00 0.00 81 1024.3
20260505060438 6 36 3.2 4.8 0.00 0.00 0.00 81 1024.3
20260505055437 6 39 3.2 3.2 0.00 0.00 0.00 81 1024.2
20260505053449 7 22 1.6 3.2 0.00 0.00 0.00 81 1024.3
20260505052437 7 41 1.6 3.2 0.00 0.00 0.00 81 1024.3
20260505051438 7 47 3.2 3.2 0.00 0.00 0.00 80 1024.4
20260505050437 8 45 3.2 3.2 0.00 0.00 0.00 80 1024.7
20260505041437 9 47 1.6 3.2 0.00 0.00 0.00 80 1024.9
20260505033437 10 45 1.6 4.8 0.00 0.00 0.00 80 1025.3
20260505032447 11 45 1.6 3.2 0.00 0.00 0.00 80 1025.3
20260505031436 11 45 1.6 3.2 0.00 0.00 0.00 80 1025.3
20260505030437 11 34 1.6 6.4 0.00 0.00 0.00 81 1025.5
20260505025436 11 289 1.6 3.2 0.00 0.00 0.00 81 1025.3
20260505024437 11 270 0.0 0.0 0.00 0.00 0.00 81 1025.5
20260505023437 11 257 1.6 3.2 0.00 0.00 0.00 81 1025.5
20260505022436 11 248 0.0 0.0 0.00 0.00 0.00 81 1025.6
20260505021437 11 248 0.0 1.6 0.00 0.00 0.00 81 1025.7
20260505020438 11 248 0.0 1.6 0.00 0.00 0.00 82 1025.8
20260505015437 11 218 3.2 6.4 0.00 0.00 0.00 82 1026.0
20260505014436 10 219 1.6 3.2 0.00 0.00 0.00 82 1026.3
20260505013447 10 248 1.6 4.8 0.00 0.00 0.00 82 1026.5
20260505012437 10 219 1.6 4.8 0.00 0.00 0.00 82 1026.5
20260505011436 10 216 3.2 4.8 0.00 0.00 0.00 82 1026.7
20260505010437 10 227 3.2 4.8 0.00 0.00 0.00 82 1027.0
20260505005439 10 225 0.0 3.2 0.00 0.00 0.00 82 1027.0
20260505003436 10 197 3.2 4.8 0.00 0.00 0.00 82 1027.5
20260505001436 10 244 1.6 4.8 0.00 0.00 0.00 83 1027.9
20260505000447 10 236 3.2 9.7 0.00 0.00 0.00 83 1028.0
20260504235437 10 182 3.2 4.8 0.00 0.00 0.00 83 1028.2
20260504234437 10 195 3.2 4.8 0.00 0.00 0.00 83 1028.4
20260504232437 10 189 3.2 4.8 0.00 0.00 0.00 84 1028.4
20260504231436 10 216 3.2 6.4 0.00 0.00 0.00 84 1028.5
20260504230437 10 238 3.2 6.4 0.00 0.00 0.00 84 1028.4
20260504225437 10 202 3.2 6.4 0.00 0.00 0.00 85 1028.4
20260504224437 10 232 3.2 4.8 0.00 0.00 0.00 85 1028.3
20260504223436 10 223 0.0 3.2 0.00 0.00 0.00 85 1028.6
20260504222437 10 195 1.6 4.8 0.00 0.00 0.00 85 1028.5
20260504221438 9 180 0.0 1.6 0.00 0.00 0.00 85 1028.6
20260504220437 9 193 0.0 3.2 0.00 0.00 0.00 85 1028.6
20260504215436 9 212 1.6 4.8 0.00 0.00 0.00 85 1028.6
20260504213436 9 212 1.6 3.2 0.00 0.00 0.00 85 1028.8
20260504212437 9 210 0.0 3.2 0.00 0.00 0.00 85 1028.9
20260504211438 8 188 0.0 3.2 0.00 0.00 0.00 85 1029.0
20260504210438 8 22 0.0 1.6 0.00 0.00 0.00 85 1028.9
20260504205436 8 82 0.0 0.0 0.00 0.00 0.00 85 1028.8
20260504204436 8 135 0.0 0.0 0.00 0.00 0.00 85 1028.8
20260504201439 8 45 0.0 0.0 0.00 0.00 0.00 85 1028.8
20260504200438 8 45 1.6 3.2 0.00 0.00 0.00 85 1028.8
20260504194437 8 43 3.2 4.8 0.00 0.00 0.00 85 1028.7
20260504193446 8 45 0.0 1.6 0.00 0.00 0.00 85 1028.6
20260504192437 8 45 0.0 0.0 0.00 0.00 0.00 85 1028.7
20260504191435 8 45 0.0 1.6 0.00 0.00 0.00 85 1028.6
20260504190437 8 45 0.0 1.6 0.00 0.00 0.00 85 1028.6
20260504185438 8 30 0.0 3.2 0.00 0.00 0.00 85 1028.6
20260504184437 8 109 0.0 3.2 0.00 0.00 0.00 85 1028.6
20260504182437 8 292 0.0 0.0 0.00 0.00 0.00 85 1028.6
20260504181447 8 292 0.0 0.0 0.00 0.00 0.00 85 1028.7
20260504180448 8 292 0.0 0.0 0.00 0.00 0.00 85 1028.7
20260504175437 8 292 0.0 0.0 0.00 0.00 0.00 85 1028.7
20260504174436 8 292 0.0 1.6 0.00 0.00 0.00 85 1028.6
20260504173437 8 248 0.0 0.0 0.00 0.00 0.00 85 1028.7
20260504172436 8 248 0.0 0.0 0.00 0.00 0.00 85 1028.7
20260504171447 8 15 0.0 1.6 0.00 0.00 0.00 85 1028.6
20260504170436 8 68 0.0 0.0 0.00 0.00 0.00 85 1028.6
20260504160436 8 45 0.0 0.0 0.00 0.00 0.00 84 1028.7
20260504150441 8 45 1.6 4.8 0.00 0.00 0.00 84 1028.9
20260504130437 8 45 1.6 3.2 0.00 0.00 0.00 84 1029.4
20260504110437 9 45 1.6 3.2 0.00 0.00 0.00 84 1030.0
20260504100437 10 45 0.0 0.0 0.00 0.00 0.00 84 1030.1